EN

Hourly Weather Ladeniki

Today, 5 August, Thursday

Time Temperature Precipitation Wind Pressure Humidity
00:00 +14°C° 0.3 mm 1 mps 733 mmHg 98%
01:00 +14°C° 0.3 mm 1 mps 733 mmHg 98%
02:00 +14°C° 0 mm 1 mps 733 mmHg 97%
03:00 +14°C° 0.1 mm 1 mps 732 mmHg 97%
04:00 +14°C° 0.1 mm 1 mps 732 mmHg 97%
05:00 +14°C° 0.1 mm 2 mps 732 mmHg 97%
06:00 +14°C° 0 mm 2 mps 732 mmHg 95%
07:00 +15°C° 0 mm 2 mps 732 mmHg 92%
08:00 +16°C° 0 mm 2 mps 732 mmHg 89%
09:00 +17°C° 0 mm 2 mps 732 mmHg 83%
10:00 +18°C° 0 mm 2 mps 732 mmHg 77%
11:00 +19°C° 0 mm 2 mps 732 mmHg 71%
12:00 +19°C° 0 mm 2 mps 732 mmHg 70%
13:00 +19°C° 0 mm 2 mps 732 mmHg 68%
14:00 +19°C° 0 mm 2 mps 732 mmHg 68%
15:00 +19°C° 0 mm 2 mps 732 mmHg 68%
16:00 +19°C° 0 mm 3 mps 732 mmHg 69%
17:00 +19°C° 0 mm 3 mps 731 mmHg 70%
18:00 +18°C° 0 mm 3 mps 731 mmHg 74%
19:00 +17°C° 0 mm 3 mps 731 mmHg 78%
20:00 +16°C° 0 mm 3 mps 731 mmHg 82%
21:00 +14°C° 0 mm 4 mps 730 mmHg 83%
22:00 +14°C° 0 mm 4 mps 730 mmHg 84%
23:00 +13°C° 0 mm 5 mps 729 mmHg 85%

Tomorrow, 6 August, Friday

Time Temperature Precipitation Wind Pressure Humidity
00:00 +13°C° 0.3 mm 5 mps 729 mmHg 88%
01:00 +13°C° 0.3 mm 5 mps 728 mmHg 91%
02:00 +13°C° 0.3 mm 5 mps 727 mmHg 94%
03:00 +13°C° 1.3 mm 6 mps 727 mmHg 95%
04:00 +13°C° 1.3 mm 6 mps 726 mmHg 96%
05:00 +13°C° 1.3 mm 6 mps 725 mmHg 97%
06:00 +14°C° 1.5 mm 6 mps 725 mmHg 97%
07:00 +14°C° 1.5 mm 6 mps 725 mmHg 97%
08:00 +14°C° 1.5 mm 6 mps 724 mmHg 97%
09:00 +15°C° 0.1 mm 5 mps 724 mmHg 95%
10:00 +16°C° 0.1 mm 5 mps 724 mmHg 93%
11:00 +17°C° 0.1 mm 5 mps 724 mmHg 92%
12:00 +19°C° 0.4 mm 5 mps 724 mmHg 89%
13:00 +20°C° 0.4 mm 4 mps 724 mmHg 86%
14:00 +21°C° 0.4 mm 4 mps 723 mmHg 83%
15:00 +21°C° 1 mm 4 mps 723 mmHg 84%
16:00 +21°C° 1 mm 5 mps 723 mmHg 84%
17:00 +20°C° 1 mm 5 mps 723 mmHg 84%
18:00 +19°C° 0.2 mm 5 mps 723 mmHg 88%
19:00 +16°C° 0.2 mm 5 mps 723 mmHg 91%
20:00 +14°C° 0.2 mm 4 mps 723 mmHg 95%
21:00 +13°C° 0 mm 4 mps 723 mmHg 95%
22:00 +13°C° 0 mm 4 mps 723 mmHg 95%
23:00 +12°C° 0 mm 4 mps 724 mmHg 95%

Day after tomorrow, 7 August, Saturday

Time Temperature Precipitation Wind Pressure Humidity
00:00 +12°C° 0 mm 4 mps 724 mmHg 95%
01:00 +12°C° 0 mm 4 mps 724 mmHg 95%
02:00 +12°C° 0 mm 4 mps 724 mmHg 95%
03:00 +12°C° 0 mm 4 mps 724 mmHg 96%
04:00 +12°C° 0 mm 4 mps 724 mmHg 96%
05:00 +12°C° 0 mm 4 mps 724 mmHg 96%
06:00 +12°C° 0.1 mm 4 mps 724 mmHg 96%
07:00 +12°C° 0.1 mm 5 mps 725 mmHg 96%
08:00 +12°C° 0.1 mm 5 mps 725 mmHg 96%
09:00 +12°C° 0.2 mm 5 mps 725 mmHg 96%
10:00 +13°C° 0.2 mm 5 mps 726 mmHg 96%
11:00 +13°C° 0.2 mm 5 mps 726 mmHg 96%
12:00 +13°C° 0.5 mm 5 mps 726 mmHg 96%
13:00 +13°C° 0.5 mm 6 mps 727 mmHg 96%
14:00 +13°C° 0.5 mm 6 mps 727 mmHg 96%
15:00 +14°C° 0.2 mm 6 mps 728 mmHg 95%
16:00 +15°C° 0.2 mm 5 mps 728 mmHg 94%
17:00 +15°C° 0.2 mm 5 mps 728 mmHg 92%
18:00 +15°C° 0 mm 4 mps 729 mmHg 92%
19:00 +15°C° 0 mm 4 mps 729 mmHg 91%
20:00 +16°C° 0 mm 3 mps 730 mmHg 91%
21:00 +16°C° 0 mm 3 mps 730 mmHg 92%
22:00 +14°C° 0 mm 3 mps 731 mmHg 92%
23:00 +13°C° 0 mm 3 mps 731 mmHg 93%

8 August, Sunday

Time Temperature Precipitation Wind Pressure Humidity
00:00 +13°C° 0 mm 3 mps 731 mmHg 93%
01:00 +13°C° 0 mm 2 mps 731 mmHg 93%
02:00 +13°C° 0 mm 2 mps 732 mmHg 92%
03:00 +13°C° 0 mm 2 mps 732 mmHg 92%
04:00 +13°C° 0 mm 2 mps 732 mmHg 92%
05:00 +12°C° 0 mm 2 mps 732 mmHg 92%
06:00 +14°C° 0 mm 2 mps 732 mmHg 88%
07:00 +16°C° 0 mm 3 mps 733 mmHg 85%
08:00 +18°C° 0 mm 3 mps 733 mmHg 81%
09:00 +19°C° 0 mm 4 mps 733 mmHg 75%
10:00 +21°C° 0 mm 4 mps 733 mmHg 70%
11:00 +22°C° 0 mm 5 mps 733 mmHg 64%
12:00 +25°C° 0 mm 5 mps 732 mmHg 62%
13:00 +26°C° 0 mm 6 mps 732 mmHg 60%
14:00 +27°C° 0 mm 6 mps 732 mmHg 57%
15:00 +27°C° 0 mm 6 mps 732 mmHg 59%
16:00 +26°C° 0 mm 5 mps 732 mmHg 61%
17:00 +26°C° 0 mm 5 mps 732 mmHg 62%
18:00 +23°C° 0 mm 5 mps 732 mmHg 69%
19:00 +22°C° 0 mm 4 mps 733 mmHg 75%
20:00 +20°C° 0 mm 4 mps 733 mmHg 82%
21:00 +19°C° 0 mm 4 mps 733 mmHg 85%
22:00 +18°C° 0 mm 3 mps 734 mmHg 88%
23:00 +17°C° 0 mm 3 mps 734 mmHg 91%

9 August, Monday

Time Temperature Precipitation Wind Pressure Humidity
00:00 +16°C° 0 mm 2 mps 734 mmHg 92%
01:00 +16°C° 0 mm 2 mps 735 mmHg 92%
02:00 +15°C° 0 mm 2 mps 735 mmHg 93%
03:00 +15°C° 0 mm 1 mps 735 mmHg 93%
04:00 +15°C° 0 mm 1 mps 735 mmHg 93%
05:00 +14°C° 0 mm 1 mps 735 mmHg 93%
06:00 +16°C° 0 mm 1 mps 735 mmHg 89%
07:00 +18°C° 0 mm 1 mps 736 mmHg 86%
08:00 +19°C° 0 mm 1 mps 736 mmHg 82%
09:00 +19°C° 0.1 mm 1 mps 736 mmHg 82%
10:00 +18°C° 0.1 mm 2 mps 737 mmHg 81%
11:00 +19°C° 0.1 mm 2 mps 737 mmHg 81%
12:00 +18°C° 0.1 mm 2 mps 737 mmHg 82%
13:00 +18°C° 0.1 mm 2 mps 737 mmHg 84%
14:00 +19°C° 0.1 mm 1 mps 737 mmHg 85%
15:00 +19°C° 0 mm 2 mps 737 mmHg 79%
16:00 +20°C° 0 mm 2 mps 737 mmHg 73%
17:00 +21°C° 0 mm 2 mps 737 mmHg 68%
18:00 +21°C° 0 mm 1 mps 737 mmHg 73%
19:00 +19°C° 0 mm 1 mps 737 mmHg 79%
20:00 +16°C° 0 mm 0 mps 737 mmHg 84%
21:00 +16°C° 0 mm 1 mps 737 mmHg 85%
22:00 +16°C° 0 mm 1 mps 737 mmHg 86%
23:00 +16°C° 0 mm 1 mps 737 mmHg 88%

10 August, Tuesday

Time Temperature Precipitation Wind Pressure Humidity
00:00 +15°C° 0 mm 1 mps 737 mmHg 88%
01:00 +15°C° 0 mm 1 mps 737 mmHg 89%
02:00 +14°C° 0 mm 1 mps 737 mmHg 90%
03:00 +14°C° 0 mm 1 mps 737 mmHg 90%
04:00 +14°C° 0 mm 1 mps 737 mmHg 91%
05:00 +14°C° 0 mm 1 mps 737 mmHg 91%
06:00 +15°C° 0 mm 1 mps 737 mmHg 86%
07:00 +16°C° 0 mm 1 mps 737 mmHg 82%
08:00 +19°C° 0 mm 1 mps 737 mmHg 77%
09:00 +20°C° 0.3 mm 1 mps 737 mmHg 74%
10:00 +21°C° 0.3 mm 1 mps 737 mmHg 70%
11:00 +21°C° 0.3 mm 2 mps 737 mmHg 67%
12:00 +21°C° 0 mm 2 mps 737 mmHg 63%
13:00 +23°C° 0 mm 2 mps 737 mmHg 59%
14:00 +23°C° 0 mm 2 mps 737 mmHg 55%
15:00 +23°C° 0 mm 2 mps 737 mmHg 55%
16:00 +23°C° 0 mm 2 mps 737 mmHg 56%
17:00 +23°C° 0 mm 1 mps 737 mmHg 57%
18:00 +22°C° 0 mm 1 mps 736 mmHg 62%
19:00 +20°C° 0 mm 1 mps 736 mmHg 67%
20:00 +17°C° 0 mm 0 mps 736 mmHg 72%
21:00 +16°C° 0 mm 0 mps 736 mmHg 74%
22:00 +16°C° 0 mm 0 mps 736 mmHg 75%
23:00 +15°C° 0 mm 0 mps 736 mmHg 76%
Show more